Location: Nasgenstadt
(48.2786°N, 9.7553°E)
Time: 14:35:06
(UTC+02:00)

ISS - Pass Details

Date: 20 May 2021
Orbit: 419 x 422 km, 51.6° (Epoch: 25 June)

Event Time Altitude Azimuth Distance (km) Brightness Sun altitude
Rises 01:10:56 0° 291° (WNW) 2,375 0.4 -21.7°
Reaches altitude 10° 01:13:02 10° 293° (WNW) 1,509 -0.7 -21.7°
Enters shadow 01:15:39 50° 306° (NW) 548 -3.1 -21.7°
